When you browse on this site, cookies collect data to enhance your experience and personalize the content and advertising you see.
Visit our Privacy Policy to learn more. By continuing to use the site, you agree to this use of cookies and data.
  • In Hungary
  • List of Countries
  • For 7 days
  • Water Temperature
  • Satellite Maps
  • Weather Map
  • News
  • Weather Widgets
  • user-avatar
    Login

    Hourly Weather Ko Kho Khao

    Today, 17 February, Sunday

    Time Temperature Precipitation Wind Pressure Humidity
    00:00 +26°C° 0 mm 1 mps 759 mmHg 83%
    01:00 +25°C° 0 mm 1 mps 760 mmHg 87%
    02:00 +25°C° 0 mm 1 mps 759 mmHg 87%
    03:00 +25°C° 0 mm 1 mps 759 mmHg 87%
    04:00 +25°C° 0 mm 1 mps 759 mmHg 86%
    05:00 +24°C° 0 mm 1 mps 759 mmHg 86%
    06:00 +24°C° 0 mm 1 mps 759 mmHg 85%
    07:00 +25°C° 0 mm 1 mps 759 mmHg 84%
    08:00 +28°C° 0 mm 1 mps 760 mmHg 73%
    09:00 +29°C° 0 mm 0 mps 760 mmHg 61%
    10:00 +32°C° 0 mm 0 mps 760 mmHg 50%
    11:00 +35°C° 0 mm 1 mps 760 mmHg 47%
    12:00 +37°C° 0 mm 2 mps 759 mmHg 44%
    13:00 +37°C° 0 mm 3 mps 759 mmHg 45%
    14:00 +36°C° 0.1 mm 3 mps 759 mmHg 50%
    15:00 +35°C° 0.1 mm 4 mps 758 mmHg 55%
    16:00 +34°C° 0.1 mm 4 mps 758 mmHg 60%
    17:00 +31°C° 0.1 mm 3 mps 758 mmHg 68%
    18:00 +29°C° 0.1 mm 3 mps 758 mmHg 77%
    19:00 +28°C° 0.1 mm 2 mps 758 mmHg 85%
    20:00 +27°C° 0 mm 2 mps 758 mmHg 87%
    21:00 +27°C° 0 mm 1 mps 759 mmHg 89%
    22:00 +26°C° 0 mm 1 mps 759 mmHg 91%
    23:00 +26°C° 0 mm 1 mps 759 mmHg 92%

    Tomorrow, 18 February, Monday

    Time Temperature Precipitation Wind Pressure Humidity
    00:00 +26°C° 0 mm 1 mps 759 mmHg 93%
    01:00 +25°C° 0 mm 1 mps 759 mmHg 94%
    02:00 +25°C° 0 mm 1 mps 758 mmHg 95%
    03:00 +25°C° 0 mm 1 mps 758 mmHg 95%
    04:00 +25°C° 0 mm 1 mps 758 mmHg 96%
    05:00 +24°C° 0 mm 1 mps 758 mmHg 95%
    06:00 +24°C° 0 mm 1 mps 758 mmHg 95%
    07:00 +24°C° 0 mm 1 mps 758 mmHg 95%
    08:00 +28°C° 0 mm 1 mps 759 mmHg 81%
    09:00 +31°C° 0 mm 1 mps 759 mmHg 67%
    10:00 +32°C° 0 mm 0 mps 760 mmHg 53%
    11:00 +36°C° 0 mm 1 mps 759 mmHg 48%
    12:00 +38°C° 0 mm 2 mps 759 mmHg 44%
    13:00 +39°C° 0 mm 3 mps 759 mmHg 39%
    14:00 +37°C° 0 mm 3 mps 758 mmHg 46%
    15:00 +35°C° 0 mm 3 mps 757 mmHg 52%
    16:00 +34°C° 0 mm 3 mps 757 mmHg 59%
    17:00 +31°C° 0 mm 3 mps 757 mmHg 67%
    18:00 +29°C° 0 mm 2 mps 757 mmHg 75%
    19:00 +28°C° 0 mm 2 mps 757 mmHg 83%
    20:00 +27°C° 0 mm 2 mps 758 mmHg 85%
    21:00 +27°C° 0 mm 2 mps 758 mmHg 87%
    22:00 +26°C° 0 mm 1 mps 759 mmHg 90%
    23:00 +26°C° 0 mm 1 mps 759 mmHg 91%

    Day after tomorrow, 19 February, Tuesday

    Time Temperature Precipitation Wind Pressure Humidity
    00:00 +26°C° 0 mm 2 mps 759 mmHg 92%
    01:00 +25°C° 0 mm 2 mps 759 mmHg 94%
    02:00 +25°C° 0 mm 2 mps 758 mmHg 94%
    03:00 +25°C° 0 mm 2 mps 758 mmHg 95%
    04:00 +25°C° 0 mm 2 mps 757 mmHg 95%
    05:00 +25°C° 0 mm 2 mps 758 mmHg 95%
    06:00 +25°C° 0 mm 2 mps 758 mmHg 95%
    07:00 +24°C° 0 mm 2 mps 759 mmHg 95%
    08:00 +28°C° 0 mm 1 mps 759 mmHg 82%
    09:00 +31°C° 0 mm 1 mps 760 mmHg 69%
    10:00 +32°C° 0 mm 0 mps 761 mmHg 56%
    11:00 +35°C° 0 mm 1 mps 760 mmHg 53%
    12:00 +37°C° 0 mm 2 mps 759 mmHg 49%
    13:00 +38°C° 0 mm 2 mps 759 mmHg 45%
    14:00 +36°C° 0.1 mm 3 mps 758 mmHg 53%
    15:00 +34°C° 0.1 mm 3 mps 758 mmHg 62%
    16:00 +31°C° 0.1 mm 3 mps 757 mmHg 70%
    17:00 +30°C° 0.1 mm 3 mps 757 mmHg 75%
    18:00 +29°C° 0.1 mm 2 mps 758 mmHg 80%
    19:00 +28°C° 0.1 mm 2 mps 758 mmHg 85%
    20:00 +27°C° 0 mm 2 mps 759 mmHg 87%
    21:00 +26°C° 0 mm 2 mps 760 mmHg 89%
    22:00 +26°C° 0 mm 2 mps 760 mmHg 91%
    23:00 +26°C° 0 mm 2 mps 760 mmHg 92%

    20 February, Wednesday

    Time Temperature Precipitation Wind Pressure Humidity
    00:00 +25°C° 0 mm 2 mps 760 mmHg 93%
    01:00 +25°C° 0 mm 2 mps 760 mmHg 94%
    02:00 +24°C° 0 mm 2 mps 760 mmHg 94%
    03:00 +24°C° 0 mm 2 mps 759 mmHg 95%
    04:00 +24°C° 0 mm 2 mps 759 mmHg 95%
    05:00 +24°C° 0 mm 2 mps 759 mmHg 95%
    06:00 +23°C° 0 mm 2 mps 759 mmHg 95%
    07:00 +23°C° 0 mm 2 mps 759 mmHg 96%
    08:00 +26°C° 0 mm 2 mps 760 mmHg 80%
    09:00 +30°C° 0 mm 1 mps 761 mmHg 64%
    10:00 +33°C° 0 mm 1 mps 761 mmHg 49%
    11:00 +36°C° 0 mm 2 mps 761 mmHg 43%
    12:00 +38°C° 0 mm 2 mps 760 mmHg 36%
    13:00 +40°C° 0 mm 2 mps 760 mmHg 30%
    14:00 +39°C° 0 mm 3 mps 759 mmHg 32%
    15:00 +39°C° 0 mm 3 mps 758 mmHg 33%
    16:00 +38°C° 0 mm 4 mps 757 mmHg 35%
    17:00 +35°C° 0 mm 3 mps 758 mmHg 48%
    18:00 +31°C° 0 mm 3 mps 758 mmHg 61%
    19:00 +29°C° 0 mm 3 mps 758 mmHg 73%
    20:00 +28°C° 0 mm 2 mps 759 mmHg 77%
    21:00 +27°C° 0 mm 2 mps 760 mmHg 82%
    22:00 +26°C° 0 mm 2 mps 761 mmHg 86%
    23:00 +26°C° 0 mm 2 mps 760 mmHg 88%

    21 February, Thursday

    Time Temperature Precipitation Wind Pressure Humidity
    00:00 +25°C° 0 mm 2 mps 760 mmHg 91%
    01:00 +25°C° 0 mm 2 mps 760 mmHg 93%
    02:00 +24°C° 0 mm 2 mps 759 mmHg 94%
    03:00 +24°C° 0 mm 2 mps 759 mmHg 94%
    04:00 +24°C° 0 mm 2 mps 759 mmHg 95%
    05:00 +24°C° 0 mm 2 mps 759 mmHg 95%
    06:00 +23°C° 0 mm 2 mps 759 mmHg 95%
    07:00 +23°C° 0 mm 2 mps 760 mmHg 95%
    08:00 +27°C° 0 mm 1 mps 760 mmHg 79%
    09:00 +30°C° 0 mm 1 mps 761 mmHg 64%
    10:00 +33°C° 0 mm 1 mps 761 mmHg 48%
    11:00 +35°C° 0 mm 1 mps 761 mmHg 42%
    12:00 +38°C° 0 mm 2 mps 760 mmHg 36%
    13:00 +40°C° 0 mm 3 mps 759 mmHg 31%
    14:00 +39°C° 0 mm 3 mps 758 mmHg 33%
    15:00 +39°C° 0 mm 3 mps 758 mmHg 35%
    16:00 +38°C° 0 mm 4 mps 757 mmHg 37%
    17:00 +35°C° 0 mm 3 mps 757 mmHg 50%
    18:00 +33°C° 0 mm 3 mps 757 mmHg 62%
    19:00 +29°C° 0 mm 2 mps 758 mmHg 75%
    20:00 +28°C° 0 mm 2 mps 758 mmHg 79%
    21:00 +28°C° 0 mm 2 mps 759 mmHg 82%
    22:00 +27°C° 0 mm 2 mps 760 mmHg 86%
    23:00 +26°C° 0 mm 2 mps 759 mmHg 88%

    22 February, Friday

    Time Temperature Precipitation Wind Pressure Humidity
    00:00 +26°C° 0 mm 2 mps 759 mmHg 90%
    01:00 +26°C° 0 mm 2 mps 759 mmHg 92%
    02:00 +25°C° 0 mm 2 mps 758 mmHg 93%
    03:00 +25°C° 0 mm 2 mps 758 mmHg 94%
    04:00 +24°C° 0 mm 2 mps 757 mmHg 94%
    05:00 +24°C° 0 mm 1 mps 758 mmHg 94%
    06:00 +24°C° 0 mm 1 mps 758 mmHg 93%
    07:00 +24°C° 0 mm 1 mps 758 mmHg 92%
    08:00 +27°C° 0 mm 1 mps 759 mmHg 77%
    09:00 +31°C° 0 mm 1 mps 759 mmHg 61%
    10:00 +34°C° 0 mm 1 mps 760 mmHg 45%
    11:00 +36°C° 0 mm 1 mps 759 mmHg 40%
    12:00 +39°C° 0 mm 2 mps 758 mmHg 35%
    13:00 +40°C° 0 mm 3 mps 758 mmHg 29%
    14:00 +40°C° 0 mm 3 mps 757 mmHg 31%
    15:00 +40°C° 0 mm 3 mps 756 mmHg 33%
    16:00 +40°C° 0 mm 4 mps 756 mmHg 34%
    17:00 +36°C° 0 mm 3 mps 756 mmHg 46%
    18:00 +34°C° 0 mm 3 mps 756 mmHg 58%
    19:00 +30°C° 0 mm 2 mps 757 mmHg 71%
    20:00 +29°C° 0 mm 2 mps 757 mmHg 75%
    21:00 +29°C° 0 mm 2 mps 758 mmHg 80%
    22:00 +28°C° 0 mm 2 mps 759 mmHg 85%
    23:00 +28°C° 0.1 mm 1 mps 759 mmHg 88%
    Show more